Dewpoint
61 61 61 61 62 61 61 63 62 61 60 60 60 59 59 59 60 61 62 61 62 62 62 60 59 58 58 59 59 57 56 27 30 34 37 46 50 57 59 59 59 60 60 53 45 21 8 9 12 15 18 26 33 27 30 22 31 40 20 19 19 16 11 10 8 10 7 4 7 9 4 3 4 6 10 12 8 8 9 9 13 15 22 21 19 21 23 23
61 61 61 61 61 61 60 63 62 60 59 59 59 59 60 60 61 61 62 62 62 62 60 60 59 60 59 60 58 58 52 26 24 27 40 54 58 57 58 58 59 59 58 21 14 14 7 9 13 15 19 15 23 18 20 26 19 20 21 21 20 21 19 11 7 4 3 6 10 10 10 3 4 5 7 5 5 7 7 10 18 17 24 16 20 21 21 24
60 60 60 61 61 60 60 60 61 60 59 60 60 60 60 61 61 61 61 61 61 61 60 60 60 60 59 59 58 57 49 32 24 23 28 56 58 57 57 57 59 60 45 32 14 12 10 5 8 9 11 12 14 17 21 20 20 15 20 20 22 23 15 12 11 9 9 8 7 7 7 5 9 9 9 8 6 7 8 11 11 12 13 14 19 19 24 28
60 60 61 60 59 59 60 62 62 61 60 60 60 59 59 59 59 59 59 60 60 57 58 58 59 59 58 55 56 56 54 31 25 23 30 55 56 58 57 59 58 51 38 22 17 15 13 8 3 4 9 10 11 15 17 20 23 19 11 15 18 17 17 16 10 7 5 4 4 5 5 4 8 8 10 6 6 6 7 10 10 10 11 13 16 19 24 25
59 60 60 59 59 60 61 61 62 61 60 60 59 59 59 59 59 59 60 58 57 58 59 59 58 58 57 56 55 58 54 22 29 25 33 53 53 54 56 54 56 48 36 26 22 16 13 10 11 13 10 6 16 12 9 16 19 19 14 11 14 17 16 15 10 9 5 4 4 5 3 6 7 10 7 8 6 5 8 7 12 9 11 13 15 17 20 22
59 60 59 59 59 59 60 60 60 60 60 60 60 60 60 60 59 59 58 59 59 58 58 59 59 59 59 55 56 58 50 24 31 26 49 53 53 53 53 53 55 49 36 20 17 18 15 14 13 19 13 12 10 9 9 10 17 13 14 12 13 13 11 9 8 12 11 4 6 8 7 7 9 8 10 8 9 10 8 8 10 10 11 13 14 17 19 22
59 59 59 58 58 58 58 59 59 60 60 60 61 61 60 60 60 59 60 60 59 59 57 57 57 57 55 56 33 27 22 20 23 33 49 52 52 50 51 50 47 21 20 18 16 21 10 10 11 11 9 9 10 9 10 12 13 13 12 12 12 12 9 8 8 14 9 8 8 8 13 10 8 9 10 7 8 9 10 9 10 11 13 13 13 17 18 19
58 59 58 58 58 58 58 59 59 59 60 60 61 60 60 60 59 60 60 60 60 59 58 56 57 58 52 57 45 28 27 20 22 27 47 50 34 31 41 23 23 23 16 11 11 12 10 7 6 7 5 6 10 8 10 9 10 11 10 9 9 9 9 9 9 9 9 10 11 14 13 8 10 12 12 7 7 8 10 11 11 12 14 13 12 14 16 17
59 59 58 58 58 59 59 59 59 59 60 60 60 60 59 59 58 58 59 60 59 59 57 57 54 56 50 62 37 23 21 25 24 26 29 28 21 24 25 23 25 17 14 13 12 15 27 19 9 13 5 4 7 6 13 8 9 11 9 9 9 9 9 9 10 10 12 11 12 12 11 9 11 18 11 7 7 8 11 9 10 12 11 12 12 13 14 14
59 58 58 58 58 59 59 59 59 59 60 59 59 59 58 57 57 57 58 58 58 57 57 58 56 53 58 58 40 19 34 24 25 27 29 27 21 25 24 26 27 17 24 18 14 18 21 14 9 10 10 9 10 10 10 10 9 9 8 8 9 10 11 16 9 11 14 15 13 10 11 9 14 15 6 7 8 10 9 9 10 11 10 10 12 13 13 14
59 58 58 58 58 59 59 59 59 59 59 59 58 58 57 56 56 56 56 56 56 56 56 56 50 45 41 39 23 21 25 24 27 28 28 29 19 24 26 26 27 18 17 21 20 17 12 11 13 11 12 8 9 9 10 10 9 8 9 9 9 9 10 12 10 12 11 13 14 12 9 12 12 15 7 6 9 10 8 8 9 9 10 10 11 11 18 13
58 58 58 58 58 58 58 59 59 58 58 58 57 57 57 56 56 56 56 55 56 56 56 57 58 37 27 24 22 26 26 25 29 27 30 32 18 22 41 27 30 26 20 20 25 33 24 27 26 14 6 15 7 8 9 9 8 8 7 6 8 8 9 12 10 15 14 13 14 12 8 7 11 9 11 9 9 8 7 8 9 9 10 11 11 11 14 14
58 58 58 58 58 58 58 58 58 57 57 58 57 57 57 57 57 56 56 54 55 56 56 55 60 59 36 24 28 31 27 26 30 30 32 33 23 19 29 30 30 30 35 31 36 40 34 27 12 6 10 9 8 6 9 8 6 7 11 7 7 7 8 11 12 13 11 14 16 11 13 10 6 8 9 9 8 8 7 7 8 8 9 10 11 11 13 14
57 57 58 58 57 58 58 58 57 57 57 57 56 56 57 57 57 57 56 53 56 55 57 56 56 39 31 32 37 34 29 32 31 32 33 33 22 23 21 26 28 32 36 33 42 40 20 12 10 9 13 8 10 17 8 10 13 7 5 8 13 11 12 15 16 10 10 15 13 12 18 4 11 6 10 10 8 7 6 6 6 8 8 9 16 14 14 15
57 57 57 57 57 57 57 57 57 57 56 55 55 55 55 55 55 55 55 53 51 55 57 59 64 42 27 35 36 31 50 42 23 33 35 33 28 24 27 30 25 32 38 44 42 42 42 30 9 6 7 11 11 7 6 6 7 4 5 13 15 13 13 10 15 13 14 14 12 14 17 9 4 8 10 9 8 6 5 5 5 6 7 8 9 11 11 11
57 57 57 57 56 56 56 56 57 56 55 55 55 55 55 55 55 55 56 54 55 57 61 49 44 30 30 34 42 48 36 29 30 40 38 33 29 36 31 38 44 41 37 44 49 45 39 29 15 7 7 12 6 4 4 12 8 7 12 19 14 11 14 9 16 18 19 15 17 10 10 7 4 8 9 9 8 6 5 4 6 5 6 8 8 9 9 13
57 57 56 56 56 56 56 56 56 56 55 55 55 55 55 55 55 56 56 57 56 55 52 49 42 42 28 44 49 33 37 41 41 41 39 36 37 35 37 42 39 40 45 48 48 45 44 31 36 30 27 7 5 21 17 21 14 15 13 14 18 4 7 8 12 10 24 15 12 11 8 5 5 7 8 10 9 7 6 5 6 7 8 7 13 9 8 9
56 56 56 55 55 55 55 55 55 54 55 54 53 51 49 50 50 50 53 54 59 54 51 52 53 35 20 45 38 33 33 40 43 40 43 36 36 35 46 36 35 43 46 44 40 38 40 35 42 16 18 15 16 24 24 14 20 16 16 16 9 -3 -4 3 10 11 13 13 11 8 8 7 8 7 8 9 8 7 6 6 6 6 7 9 10 8 9 10
55 55 55 55 54 54 54 53 53 53 53 52 49 50 50 50 44 41 41 46 44 36 43 38 44 40 26 40 45 44 35 53 48 42 35 35 37 39 46 49 48 44 42 33 30 40 35 35 39 28 22 19 15 16 14 21 15 16 13 14 10 9 3 5 10 13 13 11 11 11 11 8 7 6 8 8 8 7 7 7 8 7 8 8 9 12 12 15
55 54 54 54 54 54 55 55 55 55 55 54 58 59 54 49 42 37 38 39 37 39 44 45 48 41 38 44 41 41 39 49 48 46 42 44 38 42 44 42 46 36 36 34 36 35 37 29 26 25 24 19 21 20 18 14 20 12 20 22 5 14 12 10 10 13 17 15 11 7 9 7 6 6 6 7 8 11 9 7 10 11 12 13 13 10 15 16
54 54 54 53 54 55 55 55 56 55 55 60 58 52 41 41 31 29 38 40 45 46 45 43 43 44 43 45 45 42 47 45 48 43 45 43 47 46 39 40 45 25 29 33 36 40 41 24 26 26 26 17 16 18 16 14 14 15 14 17 17 20 11 10 10 12 16 15 8 8 9 11 10 10 8 8 8 8 9 9 10 11 12 14 17 18 19 16
54 53 53 53 54 55 55 53 54 55 55 58 57 48 46 47 52 51 39 28 41 48 48 46 47 45 46 46 46 46 46 47 44 40 44 44 47 38 40 37 33 24 32 36 36 29 24 24 27 25 25 18 17 16 15 17 20 21 19 20 19 19 18 9 11 11 15 15 11 9 12 11 6 9 10 9 10 10 9 11 10 10 13 13 13 18 20 22
53 53 51 53 54 54 52 51 49 51 58 55 50 46 46 50 49 53 48 28 32 44 41 44 41 40 42 48 49 48 40 34 35 40 38 43 43 39 42 31 34 34 36 38 30 26 25 26 21 22 22 21 18 14 17 22 26 24 23 23 17 23 16 14 16 10 14 13 14 12 13 14 8 11 13 14 10 14 24 22 27 29 22 20 17 18 24 22
53 52 53 52 54 54 54 52 52 54 52 53 50 49 50 49 50 52 54 30 32 40 42 41 46 42 41 40 44 46 40 38 37 33 42 41 38 38 37 39 29 31 27 34 34 31 27 26 24 23 24 21 23 24 23 20 21 29 30 25 20 20 14 13 12 13 14 13 19 13 20 17 14 11 13 12 14 18 22 22 21 23 28 27 30 28 29 25
53 52 52 53 53 54 54 54 47 51 51 44 48 52 50 51 51 49 41 31 30 35 42 47 47 40 42 47 48 45 40 39 38 40 43 41 35 40 32 34 33 24 30 33 25 20 24 22 27 26 28 28 28 24 25 28 21 24 26 26 24 20 18 20 19 19 13 18 18 22 17 16 15 12 11 14 15 13 14 17 18 18 22 25 22 24 26 31
52 52 51 54 54 54 53 49 47 51 55 49 51 52 49 53 50 51 47 24 20 36 44 41 45 41 44 44 43 43 43 33 38 41 45 42 40 40 34 28 34 26 32 31 28 27 25 22 28 27 29 30 30 26 28 29 22 21 19 27 26 24 24 27 23 23 17 11 21 16 18 15 19 15 17 12 12 12 18 20 16 17 17 24 25 25 22 23
52 52 53 53 52 53 52 47 53 53 37 44 52 51 52 52 47 54 39 17 18 27 37 45 46 41 47 41 43 45 27 30 45 45 39 42 42 42 41 28 30 32 35 33 31 22 33 31 24 28 26 28 29 28 28 28 24 20 24 29 26 25 25 26 27 26 20 20 24 21 20 18 16 17 16 15 15 14 18 17 17 17 11 18 15 17 20 21
53 53 53 52 51 50 53 47 50 51 51 51 51 51 51 50 53 50 34 -1 -1 38 41 38 44 45 44 40 45 36 36 39 43 40 40 44 46 45 38 35 30 28 27 35 22 28 25 28 30 28 26 23 23 23 28 29 25 26 27 28 28 26 27 28 26 24 21 16 15 18 21 14 13 17 15 16 17 14 14 15 18 19 20 20 21 22 24 21
53 53 53 53 52 52 58 52 47 55 52 50 51 51 52 52 50 39 26 10 30 32 43 38 43 45 39 40 40 42 40 38 38 36 41 44 43 41 26 30 31 30 33 35 26 26 27 27 25 30 29 20 26 24 26 28 27 30 30 29 29 28 27 25 21 22 22 16 14 17 18 16 16 21 18 20 18 17 15 14 15 19 25 26 27 26 24 20
53 53 53 52 52 53 53 54 49 51 50 49 53 52 51 48 42 30 4 -4 30 19 37 41 42 39 37 36 33 39 38 37 37 40 39 35 38 40 37 41 36 33 27 27 27 29 26 27 32 31 29 29 26 26 29 28 28 31 30 30 30 27 25 25 23 17 17 15 13 18 18 15 14 20 21 20 22 16 15 12 13 21 24 24 28 24 26 24
52 52 50 53 56 58 56 44 52 51 51 51 51 52 52 46 31 20 -2 16 40 35 34 33 38 39 34 34 30 37 36 35 38 40 33 40 30 37 35 29 36 28 27 28 28 29 29 31 33 27 29 30 29 30 31 31 31 31 28 27 25 23 22 17 15 20 17 16 17 11 17 18 18 16 22 14 14 14 14 13 14 20 22 26 28 27 26 28
53 53 53 51 50 56 52 46 51 51 52 51 54 51 46 30 22 18 12 32 22 24 28 27 34 33 33 33 33 34 30 36 36 37 35 32 23 27 29 21 26 14 18 19 19 31 32 28 28 29 26 29 31 27 29 30 29 28 26 25 21 20 18 17 16 17 20 17 11 12 22 18 15 17 15 14 14 15 19 18 20 24 21 26 26 30 29 32
51 51 51 51 53 49 47 49 52 51 52 52 51 45 32 22 8 24 18 20 21 30 28 39 34 34 34 31 28 30 33 30 36 35 36 30 33 31 34 33 28 24 15 20 22 21 24 28 30 31 30 29 28 23 25 24 27 26 22 19 20 19 14 11 16 16 17 20 18 16 21 14 16 16 17 15 16 17 20 23 24 24 24 26 28 29 30 33
51 49 46 48 48 49 49 52 52 52 53 52 45 42 21 17 13 29 19 22 22 30 34 31 31 33 32 21 29 28 25 31 35 31 35 19 22 20 30 34 33 34 19 17 14 14 12 17 25 27 25 26 26 24 23 22 21 21 24 22 19 19 15 12 17 13 16 16 20 20 16 19 12 18 16 16 17 20 17 19 24 26 27 28 29 31 29 30
50 49 48 51 50 50 50 50 52 52 54 46 38 30 16 15 19 19 20 23 29 36 33 32 32 29 21 28 29 31 34 24 31 31 30 18 15 15 22 30 32 33 26 11 16 11 18 18 25 27 26 26 27 27 25 25 22 23 23 24 23 18 19 19 21 20 18 21 20 15 17 17 16 21 20 19 19 19 20 21 23 24 26 28 32 33 31 31
52 54 55 50 49 50 50 51 51 53 53 37 32 23 21 21 17 27 27 34 34 33 27 36 30 24 15 23 26 31 37 31 33 29 19 21 25 21 29 29 27 31 20 13 18 11 15 11 27 29 27 21 22 26 27 25 20 20 21 21 21 23 23 20 18 17 18 19 19 18 16 22 17 18 19 20 18 17 19 19 20 25 27 31 32 32 31 32
48 52 49 52 50 49 49 50 51 54 48 41 28 22 24 22 28 35 39 35 37 31 31 20 19 23 17 18 20 22 27 32 25 26 17 20 17 28 28 31 33 29 33 28 14 23 15 19 26 27 24 24 26 24 28 27 23 22 19 20 23 22 21 21 19 18 19 17 17 15 14 16 16 20 18 18 19 17 19 20 21 27 28 29 31 33 32 32
49 50 48 49 48 48 50 50 52 49 46 36 28 32 26 25 32 39 37 34 33 31 27 22 22 31 18 19 18 25 33 24 23 17 17 17 16 33 32 30 32 34 32 31 24 22 22 12 21 25 26 29 28 27 28 29 27 24 22 27 24 22 21 20 18 13 11 11 15 16 12 14 15 19 16 17 17 18 19 21 22 26 25 28 31 30 31 32
48 46 43 51 48 49 51 51 51 45 42 27 27 23 29 33 35 35 37 37 33 32 26 28 20 20 29 16 28 26 25 15 23 16 13 20 13 31 32 32 27 31 30 31 23 20 22 14 21 23 26 25 26 24 22 23 28 27 26 25 24 20 20 19 21 20 19 16 8 14 13 15 23 20 17 16 17 19 18 23 21 22 25 26 27 30 32 33
42 41 42 48 48 49 48 50 52 45 35 24 25 28 32 31 37 35 34 38 33 27 24 34 26 19 19 25 28 21 25 26 19 18 20 20 19 31 31 29 29 30 31 29 27 28 19 17 10 21 23 21 19 21 19 20 16 13 20 20 18 19 21 19 18 21 20 17 17 15 13 19 23 19 17 16 16 19 19 23 26 25 26 28 28 31 32 32
50 42 45 50 50 47 47 53 41 35 30 27 27 26 27 33 37 36 38 38 33 35 36 36 30 20 20 19 18 23 23 22 20 18 16 20 18 17 31 34 33 27 31 25 23 24 19 15 14 20 18 18 22 25 24 23 22 18 19 20 20 19 16 19 21 16 17 19 15 15 16 22 25 19 17 17 18 21 24 26 27 28 25 24 31 31 32 33
41 31 42 51 49 51 51 34 28 28 33 28 28 26 30 36 37 36 35 33 35 28 32 35 31 31 24 21 29 24 21 20 22 20 21 14 26 26 30 30 32 31 25 18 24 30 24 21 21 21 21 20 26 24 24 23 22 24 19 19 21 19 20 21 17 20 19 17 16 19 13 20 26 26 19 19 20 22 26 26 26 27 25 27 30 30 32 32
36 38 43 47 47 51 46 33 34 33 30 30 34 34 36 37 37 36 35 33 29 35 24 30 35 32 30 26 21 23 22 19 24 21 26 24 26 27 32 31 32 32 27 21 25 23 30 20 15 19 21 24 22 20 21 23 24 16 17 18 17 18 20 21 21 20 23 16 18 18 13 22 25 29 26 25 26 24 25 26 25 24 24 26 29 31 32 32
41 39 45 50 49 50 44 27 26 29 29 28 32 32 34 36 35 31 35 33 27 31 29 26 30 33 33 30 24 20 26 17 23 21 20 21 25 32 32 31 30 26 29 27 23 27 14 19 20 20 19 23 22 21 22 20 19 20 20 21 21 22 20 19 20 20 18 22 22 23 17 24 29 26 25 22 22 22 22 23 26 26 28 30 29 31 32 32
36 40 41 46 51 49 35 38 30 31 27 25 25 23 27 30 34 36 36 35 34 30 32 31 34 32 30 30 28 25 23 25 19 22 26 26 27 31 32 29 30 27 33 33 34 32 25 22 19 19 15 11 14 18 20 23 20 19 21 24 22 21 17 16 14 19 15 22 19 19 23 25 26 25 24 23 23 21 21 22 24 27 28 28 31 32 31 32
30 26 30 34 42 40 39 37 39 31 28 26 21 26 29 27 34 34 36 35 34 33 30 33 31 31 28 29 22 19 20 23 23 22 21 22 27 29 29 31 29 28 32 34 32 27 22 21 20 20 21 21 21 21 23 28 18 16 19 21 22 23 22 23 22 21 19 21 19 22 24 26 26 22 21 22 23 20 19 21 22 23 26 29 31 33 33 31
40 28 30 27 30 32 36 33 30 31 28 28 21 26 23 29 32 31 37 31 33 33 31 30 29 26 26 28 24 25 26 21 22 23 20 22 21 21 22 29 27 32 33 32 29 24 21 19 22 20 20 21 24 21 23 27 20 21 22 21 23 22 23 22 19 22 25 22 19 24 23 21 18 22 20 21 21 21 21 21 21 23 26 29 32 32 32 29
27 29 31 31 25 27 27 27 31 31 34 29 27 29 28 28 28 26 28 30 31 29 29 30 28 31 31 28 28 23 25 23 22 20 25 22 23 22 22 25 24 32 31 26 25 22 22 20 21 17 19 24 24 23 22 23 25 23 22 24 22 23 23 21 20 23 24 23 19 22 24 24 22 21 23 21 21 21 20 22 23 23 28 28 28 28 29 28
38 31 31 35 29 28 29 33 32 32 30 31 27 31 29 28 27 30 27 26 30 27 30 25 30 28 30 33 29 25 26 18 22 26 22 21 21 23 22 21 23 30 21 19 17 20 21 22 21 22 18 23 22 23 23 22 22 23 24 24 24 23 22 22 21 21 25 25 25 26 26 26 25 24 24 27 26 22 22 25 25 25 26 26 27 28 28 27
27 34 27 31 31 28 30 31 32 31 26 29 25 28 31 30 30 30 29 28 25 29 31 26 31 31 30 32 32 29 29 30 31 25 28 26 22 25 24 26 24 21 20 19 19 18 20 20 24 18 18 21 22 21 19 22 19 18 22 24 25 24 23 23 22 22 24 24 24 25 24 23 23 24 26 26 28 27 25 24 23 25 27 27 27 28 28 27
43 40 37 28 31 28 29 32 30 28 26 26 23 31 29 33 31 31 30 33 32 29 28 25 29 33 31 31 33 32 38 33 34 33 32 26 23 28 24 24 23 20 19 18 17 18 19 21 19 19 19 22 18 18 17 17 16 16 18 21 25 23 19 21 21 22 21 19 20 20 19 19 19 25 24 25 27 25 23 24 23 24 27 27 27 28 28 28
43 42 42 42 31 30 29 29 28 27 23 28 26 32 25 30 36 30 24 35 34 36 31 30 37 33 31 31 31 31 37 36 36 33 33 29 31 30 31 29 26 22 23 22 21 23 21 23 20 22 20 23 18 16 16 16 14 18 20 19 21 24 23 22 23 23 23 21 19 19 18 19 20 27 24 25 27 26 25 25 25 26 26 26 27 27 27 29